Tracking 28790 objects as of 18-Apr-2024
HD Live streaming from Space Station
objects crossing your sky now

FENGYUN 1C DEB

Track FENGYUN 1C DEB now!
10-day predictions


NORAD ID: 36269
Int'l Code: 1999-025DWW
Perigee: 647.5 km
Apogee: 1,003.7 km
Inclination: 99.1 °
Period: 101.3 minutes
Semi major axis: 7196 km
RCS: 0.0019 m2 (small)
Launch date: May 10, 1999
Source: People's Republic of China (PRC)
Launch site: Taiyaun Space Center, China (TSC)

Note: This is SATELLITE DEBRIS
Your satellite tracking list
Your tracking list is empty




NASA's NSSDC Master Catalog

Two Line Element Set (TLE):
1 36269U 99025DWW 24109.20735223  .00003481  00000-0  11691-2 0  9997
2 36269  99.0816  23.5238 0247427 213.8696 144.6468 14.22037390791220
Source of the keplerian elements: AFSPC